Klawock, AK

11:08 PM AKST on December 08, 2019 (GMT -0900)
Klawock

Weather History for PAKW - November, 2019

Change the Weather History Date:

Saturday, November 16, 2019

  Actual Average Record
Temperature  
Mean Temperature 50 °F -  
Max Temperature 53 °F 43 °F 52 °F (1999)
Min Temperature 46 °F 34 °F 23 °F (2017)
Degree Days  
Heating Degree Days 16    
Moisture  
Dew Point 48 °F    
Average Humidity 90    
Maximum Humidity 97    
Minimum Humidity 80    
Precipitation  
Precipitation 0.70 in - - ()
Sea Level Pressure  
Sea Level Pressure 29.29 in    
Wind  
Wind Speed 5 mph (South)    
Max Wind Speed 16 mph    
Max Gust Speed 24 mph    
Visibility 5 miles    
Events Rain    
Averages and records for this station are not official NWS values.
T = Trace of Precipitation, MM = Missing Value Source: NWS Daily Summary

Daily Weather History Graph

Daily Weather History Graph

Search for Another Location

Airport or City:

Astronomy

Nov. 16, 2019 Rise Set
Actual Time 7:28 AM AKST 3:44 PM AKST
Civil Twilight 6:47 AM AKST 4:26 PM AKST
Nautical Twilight 6:01 AM AKST 5:11 PM AKST
Astronomical Twilight 5:18 AM AKST 5:55 PM AKST
Moon 7:03 PM AKST (11/16) 11:51 AM AKST (11/16)
Length of Visible Light 9h 39m
Length of Day
8h 15m
Waning Gibbous, 81% of the Moon is Illuminated
Nov 16
Waning Gibbous
Nov 19
Last Quarter
Nov 26
New
Dec 3
First Quarter
Dec 11
Full

Hourly Weather History & Observations

Time (AKST) Temp. Dew Point Humidity Pressure Visibility Wind Dir Wind Speed Gust Speed Precip Events Conditions
12:53 AM 50.0 °F 44.1 °F 80% 29.66 in 10.0 mi Variable 3.5 mph - N/A   Overcast
1:53 AM 48.9 °F 43.0 °F 80% 29.60 in 5.0 mi SSE 4.6 mph - 0.04 in Rain Rain
2:51 AM 46.4 °F 44.6 °F 93% 29.59 in 2.5 mi Calm Calm - 0.09 in Rain Rain
2:53 AM 46.9 °F 45.0 °F 93% 29.60 in 2.5 mi Calm Calm - 0.09 in Rain Rain
3:18 AM 48.0 °F 45.0 °F 89% 29.55 in 3.0 mi Calm Calm - 0.07 in Rain Rain
3:53 AM 46.9 °F 44.1 °F 90% 29.55 in 5.0 mi Variable 4.6 mph - 0.11 in Rain Light Rain
4:53 AM 48.9 °F 43.0 °F 80% 29.50 in 6.0 mi Variable 4.6 mph - 0.04 in Rain Light Rain
7:39 AM 50.0 °F 46.0 °F 86% 29.40 in 4.0 mi SSE 11.5 mph 19.6 mph 0.02 in Rain Light Rain
7:53 AM 50.0 °F 46.9 °F 89% 29.38 in 5.0 mi SSE 8.1 mph 18.4 mph 0.02 in Rain Light Rain
8:53 AM 51.1 °F 46.9 °F 86% 29.35 in 4.0 mi SSE 13.8 mph 24.2 mph 0.02 in Rain Light Rain
9:53 AM 51.1 °F 48.0 °F 89% 29.33 in 5.0 mi South 11.5 mph 19.6 mph 0.00 in   Overcast
10:53 AM 51.1 °F 48.0 °F 89% 29.32 in 9.0 mi South 12.7 mph 18.4 mph 0.00 in   Overcast
12:14 PM 51.1 °F 46.9 °F 86% 29.27 in 2.0 mi East 4.6 mph - 0.02 in Rain Light Rain
12:23 PM 51.1 °F 48.0 °F 89% 29.27 in 7.0 mi Calm Calm - 0.02 in Rain Light Rain
12:53 PM 51.1 °F 48.0 °F 89% 29.28 in 3.0 mi Calm Calm - 0.04 in Rain Light Rain
1:53 PM 51.1 °F 48.0 °F 89% 29.24 in 10.0 mi South 6.9 mph - 0.00 in   Overcast
2:51 PM 51.8 °F 48.2 °F 88% 29.20 in 10.0 mi Variable 5.8 mph - 0.00 in   Overcast
2:53 PM 51.1 °F 48.0 °F 89% 29.20 in 10.0 mi SSE 8.1 mph - 0.00 in   Overcast
4:13 PM 51.1 °F 48.0 °F 89% 29.19 in 10.0 mi ENE 3.5 mph - 0.00 in   Overcast
4:22 PM 50.0 °F 48.0 °F 93% 29.20 in 2.5 mi Calm Calm - 0.03 in Rain Rain
4:32 PM 50.0 °F 48.0 °F 93% 29.19 in 6.0 mi Variable 3.5 mph - 0.03 in Rain Light Rain
4:53 PM 50.0 °F 48.0 °F 93% 29.18 in 10.0 mi Variable 3.5 mph - 0.03 in   Overcast
5:53 PM 50.0 °F 46.9 °F 89% 29.19 in 10.0 mi Variable 4.6 mph - 0.01 in   Overcast
6:30 PM 50.0 °F 48.0 °F 93% 29.18 in 10.0 mi Variable 4.6 mph - 0.00 in Rain Light Rain
6:53 PM 51.1 °F 48.9 °F 92% 29.16 in 5.0 mi SSE 5.8 mph - 0.02 in Rain Light Rain
7:46 PM 51.1 °F 48.9 °F 92% 29.18 in 2.5 mi Variable 3.5 mph - 0.05 in Rain Rain
7:53 PM 52.0 °F 50.0 °F 93% 29.18 in 2.5 mi South 8.1 mph - 0.06 in Rain Light Rain
8:11 PM 52.0 °F 51.1 °F 97% 29.16 in 2.0 mi Variable 6.9 mph - 0.02 in Rain Rain
8:31 PM 53.1 °F 51.1 °F 93% 29.16 in 2.0 mi South 6.9 mph - 0.05 in Rain Light Rain
8:53 PM 53.1 °F 51.1 °F 93% 29.17 in 1.8 mi SSW 8.1 mph - 0.09 in Rain Light Rain
9:00 PM 53.1 °F 51.1 °F 93% 29.17 in 2.0 mi South 9.2 mph - 0.01 in Rain Light Rain
9:26 PM 53.1 °F 51.1 °F 93% 29.20 in 2.5 mi South 8.1 mph - 0.04 in Rain Light Rain
9:53 PM 53.1 °F 51.1 °F 93% 29.18 in 2.5 mi South 9.2 mph - 0.08 in Rain Light Rain
10:02 PM 53.1 °F 51.1 °F 93% 29.18 in 4.0 mi South 11.5 mph 19.6 mph 0.00 in Rain Light Rain
10:41 PM 53.1 °F 50.0 °F 89% 29.19 in 2.5 mi SSW 16.1 mph 23.0 mph 0.03 in Rain Light Rain
10:51 PM 53.6 °F 50.0 °F 88% 29.20 in 1.8 mi SSW 15.0 mph 20.7 mph 0.04 in Rain Light Rain
10:53 PM 53.1 °F 50.0 °F 89% 29.20 in 1.8 mi South 12.7 mph 21.9 mph 0.05 in Rain Light Rain